Current weather by "City, St" or "zip code"  
 

Current Conditions: Tyndall Air Force Base, FL

Fair


69.0 F

Last Updated on Oct 24 2020, 6:56 pm CDT
Humidity: 92%
Wind Speed: N 0.0 mph
Barometer 29.88 in
Dewpoint: 66.9 F
Visibility: 10.00 mi
Precip: --
Heat Index: NA
Wind Chill: NA
Current conditions at:

Tyndall Air Force Base, FL (KPAM)

Lat: 30.06444 Lon: 85.5637

Local Radar Image active severe weather and emergency alerts image image weather storm and storm spotter reports image weather observation monitoring service image
Local
Radar
Active
Alerts
Storm Reports Obs
Monitoring

Sign-up For Email & Text Message Weather Alert Notification Services



Advertise Here

Observation History for Tyndall Air Force Base, FL


Time Wind
(mph)
Vis
(mi)
Weather Precip (in) Temperature (F) Relative
Humidity
Wind
Chill
(F)
Heat
Index
(F)
Pressure
Air Dwpt altimeter
(in)
sea level
(mb)
Rmks
6:56 pm CDT N 0.0 10.00 Fair -- 69.0 66.9 92% NA NA 29.88 1012.1
5:56 pm CDT E 4.6 10.00 Fair -- 71.0 67.6 91% NA NA 29.88 1012.1
4:56 pm CDT E 4.6 10.00 Fair -- 70.0 67.5 92% NA NA 29.88 1012.1
3:56 pm CDT E 4.6 10.00 A Few Clouds Trace 69.0 67.3 93% NA NA 29.90 1012.8
1:56 pm CDT N 3.5 5.00 Thunderstorm Rain 01.18 69.0 66.4 93% NA NA 29.93 1013.8
12:56 pm CDT W 16.1 G 20.7 0.38 Thunderstorm Heavy Rain Fog 02.01 70.0 67.1 92% NA NA 29.93 1013.8
11:56 am CDT E 9.2 6.00 Thunderstorm Heavy Rain Fog/Mist -- 73.0 70.0 90% NA NA 29.92 1013.5
10:56 am CDT SE 6.9 10.00 Light Rain 00.02 77.0 72.9 88% NA NA 29.94 1014.2
9:56 am CDT E 5.8 10.00 A Few Clouds -- 78.0 74.7 89% NA NA 29.95 1014.5
8:56 am CDT E 8.1 10.00 Overcast Trace 75.0 73.0 94% NA NA 29.96 1014.8
7:56 am CDT E 6.9 10.00 A Few Clouds -- 73.0 70.9 94% NA NA 29.95 1014.5
6:56 am CDT E 3.5 10.00 Partly Cloudy -- 72.0 69.8 93% NA NA 29.94 1014.2
5:56 am CDT E 4.6 10.00 Overcast -- 72.0 69.8 93% NA NA 29.94 1014.2
4:56 am CDT E 6.9 10.00 Fair -- 72.0 69.6 92% NA NA 29.94 1014.2
3:56 am CDT E 5.8 10.00 A Few Clouds -- 73.0 69.6 91% NA NA 29.93 1013.8
2:56 am CDT E 6.9 10.00 Fair -- 73.0 70.0 91% NA NA 29.95 1014.5
1:56 am CDT E 4.6 10.00 Fair -- 73.0 70.0 89% NA NA 29.97 1015.2
12:56 am CDT E 6.9 10.00 Fair -- 74.0 69.8 88% NA NA 29.98 1015.5
11:56 pm CDT NE 3.5 10.00 Overcast -- 74.0 70.7 89% NA NA 30.00 1016.2
10:56 pm CDT NE 3.5 10.00 Partly Cloudy -- 74.0 70.9 91% NA NA 30.00 1016.2
9:56 pm CDT NE 3.5 10.00 Fair -- 74.0 70.7 90% NA NA 29.99 1015.9

Regional Weather Observation


Panama City - Northwest Florida Beaches International Airport, FL (KECP)

Fair
67.0 F

Tyndall Air Force Base, FL (KPAM)

Fair
69.0 F

Tri-County Airport, FL (K1J0)

Fair
69.0 F

Marianna Municipal Airport, FL (KMAI)

Overcast
69.0 F

Destin, Destin-Ft. Walton Beach Airport, FL (KDTS)

Partly Cloudy
70.0 F

Valparaiso / Eglin Air Force Base, FL (KVPS)

Mostly Cloudy
69.0 F